,,Stat6,,Stat2,,Stat8,,Stat9,,Stat10,,Wind1,,Wind1,
time,status,PA1M_AVG,status,PR1M_SUM,status,RH1M_AVG,status,SR1M_AVG,status,TA1M_AVG,status,W1dAve1m,status,W1sAve1m,
2004-05-24, 00:00:00,VALID,919.951,VALID,0,VALID,100,VALID,-0.0849042,VALID,20.0291,VALID,355,VALID,0.769444,
2004-05-24, 00:01:00,VALID,919.946,VALID,0,VALID,100,VALID,-0.0849042,VALID,20.0579,VALID,15,VALID,0.4375,
2004-05-24, 00:02:00,VALID,919.95,VALID,0.2,VALID,100,VALID,-0.0849042,VALID,20.0706,VALID,15,VALID,0.105923,
2004-05-24, 00:03:00,VALID,919.926,VALID,0,VALID,100,VALID,-0.101885,VALID,20.074,VALID,23,VALID,0.376272,
2004-05-24, 00:04:00,VALID,919.939,VALID,0,VALID,100,VALID,-0.0339617,VALID,20.0797,VALID,24,VALID,0.271739,
2004-05-24, 00:05:00,VALID,919.929,VALID,0,VALID,100,VALID,0.0339617,VALID,20.0758,VALID,24,VALID,0.311773,
2004-05-24, 00:06:00,VALID,919.907,VALID,0,VALID,100,VALID,0.0169808,VALID,20.0984,VALID,11,VALID,0.426562,
2004-05-24, 00:07:00,VALID,919.903,VALID,0.2,VALID,100,VALID,0,VALID,20.0696,VALID,18,VALID,1.25949,
2004-05-24, 00:08:00,VALID,919.894,VALID,0,VALID,100,VALID,0.0509425,VALID,20.0335,VALID,15,VALID,1.2513,
2004-05-24, 00:09:00,VALID,919.894,VALID,0,VALID,100,VALID,0.0169808,VALID,20.0628,VALID,22,VALID,1.16206,
2004-05-24, 00:10:00,VALID,919.907,VALID,0,VALID,100,VALID,0.0169808,VALID,20.0854,VALID,25,VALID,0.791159,
2004-05-24, 00:11:00,VALID,919.91,VALID,0.2,VALID,100,VALID,0.0169808,VALID,20.1051,VALID,22,VALID,0.34082,
2004-05-24, 00:12:00,VALID,919.874,VALID,0,VALID,100,VALID,0,VALID,20.108,VALID,25,VALID,0.447266,
2004-05-24, 00:13:00,VALID,919.872,VALID,0.2,VALID,100,VALID,0.0169808,VALID,20.0954,VALID,11,VALID,1.17321,
2004-05-24, 00:14:00,VALID,919.832,VALID,0,VALID,100,VALID,0.0169808,VALID,20.0758,VALID,21,VALID,1.40644,
2004-05-24, 00:15:00,VALID,919.816,VALID,0,VALID,100,VALID,0.0339617,VALID,20.0723,VALID,15,VALID,1.54219,
2004-05-24, 00:16:00,VALID,919.819,VALID,0,VALID,100,VALID,0.0339617,VALID,20.0658,VALID,19,VALID,1.00728,
2004-05-24, 00:17:00,VALID,919.824,VALID,0.2,VALID,100,VALID,0.0169808,VALID,20.0892,VALID,21,VALID,1.04567,
2004-05-24, 00:18:00,VALID,919.817,VALID,0,VALID,100,VALID,0.0339617,VALID,20.069,VALID,16,VALID,1.11205,
2004-05-24, 00:19:00,VALID,919.811,VALID,0.2,VALID,100,VALID,0.0339617,VALID,20.0397,VALID,12,VALID,0.797991,
2004-05-24, 00:20:00,VALID,919.804,VALID,0,VALID,100,VALID,0.0509425,VALID,20.0333,VALID,24,VALID,0.615699,
2004-05-24, 00:21:00,VALID,919.789,VALID,0,VALID,100,VALID,0.0169808,VALID,20.0271,VALID,24,VALID,0.70846,
2004-05-24, 00:22:00,VALID,919.791,VALID,0,VALID,100,VALID,0.0169808,VALID,20.0407,VALID,23,VALID,1.17208,
2004-05-24, 00:23:00,VALID,919.803,VALID,0,VALID,100,VALID,0.0339617,VALID,20.0601,VALID,29,VALID,0.94779,
2004-05-24, 00:24:00,VALID,919.795,VALID,0,VALID,100,VALID,0.0169808,VALID,20.04,VALID,22,VALID,1.1967,
2004-05-24, 00:25:00,VALID,919.795,VALID,0.2,VALID,100,VALID,0.0339617,VALID,20.037,VALID,25,VALID,0.953125,
2004-05-24, 00:26:00,VALID,919.791,VALID,0,VALID,100,VALID,0.0509425,VALID,20.0365,VALID,33,VALID,0.57984,
2004-05-24, 00:27:00,VALID,919.787,VALID,0,VALID,100,VALID,0.0169808,VALID,20.0628,VALID,24,VALID,0.732244,
2004-05-24, 00:28:00,VALID,919.768,VALID,0,VALID,100,VALID,0.0169808,VALID,20.043,VALID,18,VALID,0.558117,
2004-05-24, 00:29:00,VALID,919.76,VALID,0,VALID,100,VALID,0.0679233,VALID,20.0075,VALID,19,VALID,0.604581,
2004-05-24, 00:30:00,VALID,919.742,VALID,0,VALID,100,VALID,0,VALID,20.0109,VALID,17,VALID,0.90189,
2004-05-24, 00:31:00,VALID,919.74,VALID,0,VALID,100,VALID,0.0339617,VALID,20.0045,VALID,25,VALID,0.237805,
2004-05-24, 00:32:00,VALID,919.714,VALID,0.2,VALID,100,VALID,0.0339617,VALID,20.001,VALID,75,VALID,0.234201,
2004-05-24, 00:33:00,VALID,919.686,VALID,0,VALID,100,VALID,0,VALID,19.9727,VALID,24,VALID,1.1503,
2004-05-24, 00:34:00,VALID,919.652,VALID,0,VALID,100,VALID,0,VALID,19.9662,VALID,7,VALID,0.988376,
2004-05-24, 00:35:00,VALID,919.641,VALID,0,VALID,100,VALID,0,VALID,19.9419,VALID,28,VALID,1.14172,
2004-05-24, 00:36:00,VALID,919.647,VALID,0,VALID,100,VALID,-0.0679233,VALID,19.9489,VALID,34,VALID,0.207217,
2004-05-24, 00:37:00,VALID,919.635,VALID,0.2,VALID,100,VALID,-0.0849042,VALID,19.9419,VALID,110,VALID,0.306463,
2004-05-24, 00:38:00,VALID,919.625,VALID,0,VALID,100,VALID,-0.0679233,VALID,19.928,VALID,144,VALID,0.0448765,
2004-05-24, 00:39:00,VALID,919.607,VALID,0,VALID,100,VALID,-0.0679233,VALID,19.9613,VALID,146,VALID,0.0782912,
2004-05-24, 00:40:00,VALID,919.581,VALID,0,VALID,100,VALID,-0.0679233,VALID,19.9417,VALID,101,VALID,0.66424,
2004-05-24, 00:41:00,VALID,919.58,VALID,0,VALID,100,VALID,-0.0679233,VALID,19.9287,VALID,16,VALID,0.971726,
2004-05-24, 00:42:00,VALID,919.555,VALID,0,VALID,100,VALID,-0.0679233,VALID,19.932,VALID,23,VALID,0.918786,
2004-05-24, 00:43:00,VALID,919.551,VALID,0,VALID,100,VALID,-0.0849042,VALID,19.9546,VALID,17,VALID,1.2002,
2004-05-24, 00:44:00,VALID,919.558,VALID,0,VALID,100,VALID,-0.101885,VALID,19.9774,VALID,13,VALID,0.840234,
2004-05-24, 00:45:00,VALID,919.54,VALID,0,VALID,100,VALID,-0.101885,VALID,19.9869,VALID,24,VALID,0.841974,
2004-05-24, 00:46:00,VALID,919.554,VALID,0,VALID,100,VALID,-0.0169808,VALID,19.9802,VALID,18,VALID,0.367374,
2004-05-24, 00:47:00,VALID,919.56,VALID,0,VALID,100,VALID,-0.0509425,VALID,19.9834,VALID,15,VALID,0.999442,
2004-05-24, 00:48:00,VALID,919.57,VALID,0.2,VALID,100,VALID,-0.0679233,VALID,19.9772,VALID,30,VALID,0.892442,
2004-05-24, 00:49:00,VALID,919.556,VALID,0,VALID,100,VALID,-0.0849042,VALID,19.9965,VALID,20,VALID,1.45922,
2004-05-24, 00:50:00,VALID,919.571,VALID,0,VALID,100,VALID,-0.0849042,VALID,19.9739,VALID,13,VALID,1.36242,
2004-05-24, 00:51:00,VALID,919.593,VALID,0,VALID,100,VALID,-0.0849042,VALID,19.9774,VALID,30,VALID,1.01314,
2004-05-24, 00:52:00,VALID,919.602,VALID,0,VALID,100,VALID,-0.0849042,VALID,19.9901,VALID,28,VALID,1.12637,
2004-05-24, 00:53:00,VALID,919.609,VALID,0,VALID,100,VALID,-0.101885,VALID,20.0035,VALID,25,VALID,0.735863,
2004-05-24, 00:54:00,VALID,919.605,VALID,0,VALID,100,VALID,-0.0849042,VALID,20.003,VALID,355,VALID,0.281994,
2004-05-24, 00:55:00,VALID,919.617,VALID,0,VALID,100,VALID,-0.0509425,VALID,19.9931,VALID,357,VALID,0.228906,
2004-05-24, 00:56:00,VALID,919.624,VALID,0,VALID,100,VALID,-0.101885,VALID,19.9804,VALID,3,VALID,0.149503,
2004-05-24, 00:57:00,VALID,919.639,VALID,0,VALID,100,VALID,-0.0849042,VALID,19.9769,VALID,73,VALID,0.394259,
2004-05-24, 00:58:00,VALID,919.635,VALID,0,VALID,100,VALID,-0.0849042,VALID,19.9543,VALID,61,VALID,0.988467,
2004-05-24, 00:59:00,VALID,919.636,VALID,0,VALID,100,VALID,-0.0849042,VALID,19.9586,VALID,30,VALID,1.25725,
2004-05-24, 01:00:00,VALID,919.658,VALID,0,VALID,100,VALID,-0.0849042,VALID,19.9903,VALID,27,VALID,0.657366,
2004-05-24, 01:01:00,VALID,919.659,VALID,0,VALID,100,VALID,-0.0849042,VALID,19.9965,VALID,21,VALID,0.436133,
2004-05-24, 01:02:00,VALID,919.657,VALID,0,VALID,100,VALID,-0.0849042,VALID,19.9807,VALID,25,VALID,1.01651,
2004-05-24, 01:03:00,VALID,919.672,VALID,0,VALID,100,VALID,-0.0849042,VALID,19.9809,VALID,20,VALID,0.927973,
2004-05-24, 01:04:00,VALID,919.66,VALID,0,VALID,100,VALID,-0.0849042,VALID,19.971,VALID,23,VALID,1.40272,
2004-05-24, 01:05:00,VALID,919.679,VALID,0,VALID,100,VALID,-0.0509425,VALID,19.9513,VALID,25,VALID,1.04576,
2004-05-24, 01:06:00,VALID,919.673,VALID,0.2,VALID,100,VALID,-0.0849042,VALID,19.964,VALID,28,VALID,1.19477,
2004-05-24, 01:07:00,VALID,919.652,VALID,0,VALID,100,VALID,-0.0679233,VALID,19.9769,VALID,15,VALID,0.923177,
2004-05-24, 01:08:00,VALID,919.65,VALID,0,VALID,100,VALID,-0.0679233,VALID,19.9739,VALID,29,VALID,1.16334,
2004-05-24, 01:09:00,VALID,919.65,VALID,0,VALID,100,VALID,-0.0509425,VALID,19.967,VALID,35,VALID,0.432776,
2004-05-24, 01:10:00,VALID,919.645,VALID,0,VALID,100,VALID,-0.0849042,VALID,19.9742,VALID,8,VALID,0.481771,
2004-05-24, 01:11:00,VALID,919.613,VALID,0,VALID,100,VALID,-0.0849042,VALID,19.9739,VALID,3,VALID,1.57285,
2004-05-24, 01:12:00,VALID,919.618,VALID,0,VALID,100,VALID,-0.0679233,VALID,19.9191,VALID,2,VALID,1.29046,
2004-05-24, 01:13:00,VALID,919.63,VALID,0,VALID,100,VALID,-0.0679233,VALID,19.9126,VALID,317,VALID,1.10007,
2004-05-24, 01:14:00,VALID,919.623,VALID,0,VALID,100,VALID,-0.0849042,VALID,19.9029,VALID,332,VALID,1.07865,
2004-05-24, 01:15:00,VALID,919.6,VALID,0,VALID,100,VALID,-0.0679233,VALID,19.8965,VALID,14,VALID,1.61426,
2004-05-24, 01:16:00,VALID,919.596,VALID,0.2,VALID,100,VALID,-0.0679233,VALID,19.8607,VALID,22,VALID,1.62277,
2004-05-24, 01:17:00,VALID,919.608,VALID,0,VALID,100,VALID,-0.0679233,VALID,19.8932,VALID,21,VALID,1.42207,
2004-05-24, 01:18:00,VALID,919.605,VALID,0,VALID,100,VALID,-0.0679233,VALID,19.9198,VALID,11,VALID,0.92066,
2004-05-24, 01:19:00,VALID,919.595,VALID,0,VALID,100,VALID,-0.0339617,VALID,19.9061,VALID,18,VALID,0.912202,
2004-05-24, 01:20:00,VALID,919.603,VALID,0,VALID,100,VALID,-0.0169808,VALID,19.9091,VALID,23,VALID,0.840116,
2004-05-24, 01:21:00,VALID,919.595,VALID,0,VALID,100,VALID,0,VALID,19.9215,VALID,44,VALID,0.358008,
2004-05-24, 01:22:00,VALID,919.576,VALID,0,VALID,100,VALID,-0.0169808,VALID,19.9347,VALID,25,VALID,0.643403,
2004-05-24, 01:23:00,VALID,919.584,VALID,0,VALID,100,VALID,-0.0169808,VALID,19.9285,VALID,4,VALID,0.548328,
2004-05-24, 01:24:00,VALID,919.564,VALID,0.2,VALID,100,VALID,-0.0339617,VALID,19.925,VALID,26,VALID,0.803544,
2004-05-24, 01:25:00,VALID,919.542,VALID,0,VALID,100,VALID,0,VALID,19.9312,VALID,13,VALID,0.864169,
2004-05-24, 01:26:00,VALID,919.538,VALID,0,VALID,100,VALID,-0.0169808,VALID,19.9643,VALID,27,VALID,0.795422,
2004-05-24, 01:27:00,VALID,919.536,VALID,0,VALID,100,VALID,0,VALID,19.9866,VALID,30,VALID,0.966797,
2004-05-24, 01:28:00,VALID,919.518,VALID,0,VALID,100,VALID,-0.0339617,VALID,19.9734,VALID,16,VALID,1.29723,
2004-05-24, 01:29:00,VALID,919.519,VALID,0,VALID,100,VALID,-0.0679233,VALID,19.9476,VALID,29,VALID,1.31855,
2004-05-24, 01:30:00,VALID,919.529,VALID,0,VALID,100,VALID,-0.0509425,VALID,19.9734,VALID,18,VALID,0.556974,
2004-05-24, 01:31:00,VALID,919.521,VALID,0,VALID,100,VALID,-0.0339617,VALID,19.9891,VALID,4,VALID,0.202762,
2004-05-24, 01:32:00,VALID,919.522,VALID,0.2,VALID,100,VALID,-0.0169808,VALID,19.9737,VALID,8,VALID,0.546131,
2004-05-24, 01:33:00,VALID,919.523,VALID,0,VALID,100,VALID,0,VALID,19.9643,VALID,17,VALID,0.381722,
2004-05-24, 01:34:00,VALID,919.517,VALID,0,VALID,100,VALID,-0.0339617,VALID,19.9739,VALID,33,VALID,0.798147,
2004-05-24, 01:35:00,VALID,919.499,VALID,0,VALID,100,VALID,-0.0339617,VALID,19.9541,VALID,18,VALID,1.26811,
2004-05-24, 01:36:00,VALID,919.486,VALID,0,VALID,100,VALID,-0.0339617,VALID,19.9643,VALID,15,VALID,1.43223,
2004-05-24, 01:37:00,VALID,919.476,VALID,0,VALID,100,VALID,-0.0339617,VALID,19.9347,VALID,14,VALID,1.41044,
2004-05-24, 01:38:00,VALID,919.475,VALID,0,VALID,100,VALID,-0.0339617,VALID,19.9126,VALID,312,VALID,1.17678,
2004-05-24, 01:39:00,VALID,919.465,VALID,0,VALID,100,VALID,0,VALID,19.8833,VALID,297,VALID,1.11052,
2004-05-24, 01:40:00,VALID,919.461,VALID,0,VALID,100,VALID,-0.0509425,VALID,19.897,VALID,25,VALID,1.45188,
2004-05-24, 01:41:00,VALID,919.463,VALID,0,VALID,100,VALID,-0.0509425,VALID,19.8997,VALID,18,VALID,0.705273,
2004-05-24, 01:42:00,VALID,919.468,VALID,0,VALID,100,VALID,-0.0339617,VALID,19.9032,VALID,12,VALID,0.590216,
2004-05-24, 01:43:00,VALID,919.467,VALID,0,VALID,100,VALID,0,VALID,19.8895,VALID,12,VALID,0.433498,
2004-05-24, 01:44:00,VALID,919.447,VALID,0,VALID,100,VALID,-0.0339617,VALID,19.8868,VALID,27,VALID,0.554297,
2004-05-24, 01:45:00,VALID,919.426,VALID,0,VALID,100,VALID,-0.0339617,VALID,19.893,VALID,16,VALID,0.65625,
2004-05-24, 01:46:00,VALID,919.419,VALID,0,VALID,100,VALID,-0.0509425,VALID,19.9126,VALID,24,VALID,1.22452,
2004-05-24, 01:47:00,VALID,919.409,VALID,0.2,VALID,100,VALID,-0.0339617,VALID,19.9061,VALID,23,VALID,0.922965,
2004-05-24, 01:48:00,VALID,919.402,VALID,0,VALID,100,VALID,-0.0679233,VALID,19.926,VALID,25,VALID,0.592262,
2004-05-24, 01:49:00,VALID,919.362,VALID,0,VALID,100,VALID,-0.0509425,VALID,19.9158,VALID,8,VALID,0.995908,
2004-05-24, 01:50:00,VALID,919.369,VALID,0,VALID,100,VALID,-0.0339617,VALID,19.9126,VALID,22,VALID,1.38056,
2004-05-24, 01:51:00,VALID,919.358,VALID,0,VALID,100,VALID,-0.0509425,VALID,19.9163,VALID,22,VALID,0.937881,
2004-05-24, 01:52:00,VALID,919.351,VALID,0,VALID,100,VALID,-0.0339617,VALID,19.9357,VALID,23,VALID,1.05506,
2004-05-24, 01:53:00,VALID,919.334,VALID,0,VALID,100,VALID,-0.0339617,VALID,19.9354,VALID,20,VALID,1.05841,
2004-05-24, 01:54:00,VALID,919.304,VALID,0,VALID,100,VALID,-0.0169808,VALID,19.9357,VALID,18,VALID,1.07794,
2004-05-24, 01:55:00,VALID,919.291,VALID,0,VALID,100,VALID,-0.0169808,VALID,19.9317,VALID,20,VALID,1.33947,
2004-05-24, 01:56:00,VALID,919.268,VALID,0,VALID,100,VALID,-0.0679233,VALID,19.9128,VALID,16,VALID,1.33594,
2004-05-24, 01:57:00,VALID,919.264,VALID,0,VALID,100,VALID,0,VALID,19.896,VALID,24,VALID,1.38826,
2004-05-24, 01:58:00,VALID,919.248,VALID,0,VALID,100,VALID,-0.0169808,VALID,19.8994,VALID,23,VALID,1.13554,
2004-05-24, 01:59:00,VALID,919.225,VALID,0,VALID,100,VALID,-0.0679233,VALID,19.8863,VALID,27,VALID,1.19389,
2004-05-24, 02:00:00,VALID,919.201,VALID,0,VALID,100,VALID,-0.0339617,VALID,19.8835,VALID,23,VALID,1.32396,
2004-05-24, 02:01:00,VALID,919.205,VALID,0,VALID,100,VALID,-0.0169808,VALID,19.8965,VALID,25,VALID,1.26767,
2004-05-24, 02:02:00,VALID,919.207,VALID,0,VALID,100,VALID,-0.0509425,VALID,19.8994,VALID,27,VALID,1.03373,
2004-05-24, 02:03:00,VALID,919.201,VALID,0,VALID,100,VALID,-0.0169808,VALID,19.8932,VALID,23,VALID,1.61272,
2004-05-24, 02:04:00,VALID,919.19,VALID,0,VALID,100,VALID,-0.0169808,VALID,19.8868,VALID,20,VALID,1.67168,
2004-05-24, 02:05:00,VALID,919.206,VALID,0,VALID,100,VALID,-0.0679233,VALID,19.8741,VALID,20,VALID,1.88881,
2004-05-24, 02:06:00,VALID,919.206,VALID,0,VALID,100,VALID,-0.0339617,VALID,19.8644,VALID,20,VALID,1.82976,
2004-05-24, 02:07:00,VALID,919.185,VALID,0,VALID,100,VALID,-0.0339617,VALID,19.8644,VALID,17,VALID,1.34375,
2004-05-24, 02:08:00,VALID,919.17,VALID,0,VALID,100,VALID,-0.0339617,VALID,19.8507,VALID,25,VALID,1.02567,
2004-05-24, 02:09:00,VALID,919.158,VALID,0,VALID,100,VALID,-0.0169808,VALID,19.8674,VALID,15,VALID,0.98492,
2004-05-24, 02:10:00,VALID,919.152,VALID,0,VALID,100,VALID,0,VALID,19.8599,VALID,26,VALID,0.682528,
2004-05-24, 02:11:00,VALID,919.147,VALID,0,VALID,100,VALID,-0.0169808,VALID,19.8873,VALID,22,VALID,0.381836,
2004-05-24, 02:12:00,VALID,919.125,VALID,0.2,VALID,100,VALID,0,VALID,19.8738,VALID,344,VALID,0.639353,
2004-05-24, 02:13:00,VALID,919.137,VALID,0,VALID,100,VALID,0,VALID,19.8254,VALID,26,VALID,0.77846,
2004-05-24, 02:14:00,VALID,919.141,VALID,0,VALID,100,VALID,-0.0849042,VALID,19.8418,VALID,5,VALID,0.808594,
2004-05-24, 02:15:00,VALID,919.145,VALID,0,VALID,100,VALID,-0.0339617,VALID,19.8319,VALID,339,VALID,0.301639,
2004-05-24, 02:16:00,VALID,919.157,VALID,0,VALID,100,VALID,-0.0509425,VALID,19.8286,VALID,274,VALID,0.455433,
2004-05-24, 02:17:00,VALID,919.163,VALID,0,VALID,100,VALID,-0.0339617,VALID,19.8316,VALID,297,VALID,0.267149,
2004-05-24, 02:18:00,VALID,919.153,VALID,0,VALID,100,VALID,0,VALID,19.8351,VALID,274,VALID,0.118676,
2004-05-24, 02:19:00,VALID,919.141,VALID,0,VALID,100,VALID,-0.0339617,VALID,19.8224,VALID,336,VALID,0.574574,
2004-05-24, 02:20:00,VALID,919.119,VALID,0,VALID,100,VALID,-0.0849042,VALID,19.7777,VALID,283,VALID,0.861073,
2004-05-24, 02:21:00,VALID,919.133,VALID,0,VALID,100,VALID,-0.101885,VALID,19.7748,VALID,226,VALID,0.480564,
2004-05-24, 02:22:00,VALID,919.108,VALID,0,VALID,100,VALID,-0.101885,VALID,19.7554,VALID,17,VALID,1.09635,
2004-05-24, 02:23:00,VALID,919.094,VALID,0,VALID,100,VALID,-0.101885,VALID,19.7748,VALID,2,VALID,1.08687,
2004-05-24, 02:24:00,VALID,919.084,VALID,0.2,VALID,100,VALID,-0.101885,VALID,19.7549,VALID,27,VALID,0.537388,
2004-05-24, 02:25:00,VALID,919.063,VALID,0,VALID,100,VALID,-0.101885,VALID,19.7427,VALID,65,VALID,0.643288,
2004-05-24, 02:26:00,VALID,919.054,VALID,0,VALID,100,VALID,-0.118866,VALID,19.729,VALID,13,VALID,0.633194,
2004-05-24, 02:27:00,VALID,919.04,VALID,0,VALID,100,VALID,-0.101885,VALID,19.7129,VALID,17,VALID,0.827344,
2004-05-24, 02:28:00,VALID,919.052,VALID,0,VALID,100,VALID,-0.101885,VALID,19.6935,VALID,3,VALID,0.264172,
2004-05-24, 02:29:00,VALID,919.017,VALID,0,VALID,100,VALID,-0.101885,VALID,19.6903,VALID,13,VALID,0.942454,
2004-05-24, 02:30:00,VALID,919.005,VALID,0,VALID,100,VALID,-0.101885,VALID,19.7069,VALID,23,VALID,0.735618,
2004-05-24, 02:31:00,VALID,918.998,VALID,0,VALID,100,VALID,-0.101885,VALID,19.6997,VALID,24,VALID,0.697173,
2004-05-24, 02:32:00,VALID,918.991,VALID,0,VALID,100,VALID,-0.101885,VALID,19.7007,VALID,18,VALID,1.04427,
2004-05-24, 02:33:00,VALID,918.995,VALID,0,VALID,100,VALID,-0.101885,VALID,19.6871,VALID,23,VALID,1.61204,
2004-05-24, 02:34:00,VALID,918.965,VALID,0,VALID,100,VALID,-0.0339617,VALID,19.6963,VALID,22,VALID,1.61757,
2004-05-24, 02:35:00,VALID,918.97,VALID,0,VALID,100,VALID,0,VALID,19.6662,VALID,17,VALID,1.54018,
2004-05-24, 02:36:00,VALID,918.986,VALID,0,VALID,100,VALID,0.0509425,VALID,19.6662,VALID,21,VALID,1.15755,
2004-05-24, 02:37:00,VALID,918.981,VALID,0,VALID,100,VALID,0.0339617,VALID,19.6757,VALID,26,VALID,1.34985,
2004-05-24, 02:38:00,VALID,918.988,VALID,0,VALID,100,VALID,0.0169808,VALID,19.6789,VALID,22,VALID,1.40892,
2004-05-24, 02:39:00,VALID,918.975,VALID,0,VALID,100,VALID,0.0169808,VALID,19.6762,VALID,26,VALID,1.22363,
2004-05-24, 02:40:00,VALID,918.969,VALID,0,VALID,100,VALID,0,VALID,19.6662,VALID,16,VALID,1.28125,
2004-05-24, 02:41:00,VALID,918.964,VALID,0,VALID,100,VALID,0,VALID,19.666,VALID,21,VALID,1.22542,
2004-05-24, 02:42:00,VALID,918.972,VALID,0,VALID,100,VALID,0.0679233,VALID,19.6724,VALID,27,VALID,0.638317,
2004-05-24, 02:43:00,VALID,918.967,VALID,0,VALID,100,VALID,0,VALID,19.6829,VALID,25,VALID,0.350391,
2004-05-24, 02:44:00,VALID,918.965,VALID,0,VALID,100,VALID,0.0339617,VALID,19.66,VALID,25,VALID,0.973722,
2004-05-24, 02:45:00,VALID,918.973,VALID,0,VALID,100,VALID,0.0169808,VALID,19.6829,VALID,24,VALID,0.551448,
2004-05-24, 02:46:00,VALID,918.974,VALID,0,VALID,100,VALID,-0.0169808,VALID,19.7084,VALID,24,VALID,0.00319602,
2004-05-24, 02:47:00,VALID,918.965,VALID,0,VALID,100,VALID,0.0169808,VALID,19.7057,VALID,24,VALID,0.310213,
2004-05-24, 02:48:00,VALID,918.953,VALID,0,VALID,100,VALID,0,VALID,19.6759,VALID,24,VALID,0.531944,
2004-05-24, 02:49:00,VALID,918.956,VALID,0,VALID,100,VALID,0,VALID,19.6796,VALID,24,VALID,0.763081,
2004-05-24, 02:50:00,VALID,918.953,VALID,0,VALID,100,VALID,0.0679233,VALID,19.6665,VALID,12,VALID,0.749092,
2004-05-24, 02:51:00,VALID,918.949,VALID,0,VALID,100,VALID,0,VALID,19.6476,VALID,359,VALID,0.214311,
2004-05-24, 02:52:00,VALID,918.94,VALID,0,VALID,100,VALID,0.0169808,VALID,19.6242,VALID,359,VALID,0.244474,
2004-05-24, 02:53:00,VALID,918.923,VALID,0,VALID,100,VALID,0.0169808,VALID,19.6538,VALID,12,VALID,1.19258,
2004-05-24, 02:54:00,VALID,918.903,VALID,0,VALID,100,VALID,0,VALID,19.6339,VALID,12,VALID,2.22674,
2004-05-24, 02:55:00,VALID,918.898,VALID,0,VALID,100,VALID,0.0169808,VALID,19.6563,VALID,20,VALID,1.54812,
2004-05-24, 02:56:00,VALID,918.879,VALID,0,VALID,100,VALID,0,VALID,19.654,VALID,5,VALID,1.1994,
2004-05-24, 02:57:00,VALID,918.903,VALID,0,VALID,100,VALID,0,VALID,19.6314,VALID,18,VALID,1.50484,
2004-05-24, 02:58:00,VALID,918.915,VALID,0,VALID,100,VALID,0,VALID,19.6446,VALID,23,VALID,0.177871,
2004-05-24, 02:59:00,VALID,918.917,VALID,0,VALID,100,VALID,-0.0339617,VALID,19.661,VALID,23,VALID,0.00520833,
2004-05-24, 03:00:00,VALID,918.918,VALID,0,VALID,100,VALID,0,VALID,19.6444,VALID,70,VALID,0.406977,
2004-05-24, 03:01:00,VALID,918.915,VALID,0,VALID,100,VALID,-0.0169808,VALID,19.654,VALID,2,VALID,0.88186,
2004-05-24, 03:02:00,VALID,918.913,VALID,0,VALID,100,VALID,0,VALID,19.6516,VALID,19,VALID,1.14473,
2004-05-24, 03:03:00,VALID,918.899,VALID,0,VALID,100,VALID,-0.0169808,VALID,19.6707,VALID,6,VALID,1.04497,
2004-05-24, 03:04:00,VALID,918.892,VALID,0,VALID,100,VALID,0.0169808,VALID,19.6377,VALID,1,VALID,0.976367,
2004-05-24, 03:05:00,VALID,918.902,VALID,0,VALID,100,VALID,-0.0169808,VALID,19.6637,VALID,23,VALID,0.648611,
2004-05-24, 03:06:00,VALID,918.883,VALID,0,VALID,100,VALID,0,VALID,19.6533,VALID,24,VALID,0.329688,
2004-05-24, 03:07:00,VALID,918.874,VALID,0,VALID,100,VALID,0,VALID,19.657,VALID,7,VALID,0.47202,
2004-05-24, 03:08:00,VALID,918.851,VALID,0,VALID,100,VALID,-0.0169808,VALID,19.6699,VALID,8,VALID,0.524346,
2004-05-24, 03:09:00,VALID,918.839,VALID,0,VALID,100,VALID,0,VALID,19.7022,VALID,17,VALID,0.778773,
2004-05-24, 03:10:00,VALID,918.834,VALID,0,VALID,100,VALID,0.0169808,VALID,19.7127,VALID,351,VALID,0.41673,
2004-05-24, 03:11:00,VALID,918.82,VALID,0,VALID,100,VALID,0,VALID,19.6799,VALID,1,VALID,0.265443,
2004-05-24, 03:12:00,VALID,918.805,VALID,0,VALID,100,VALID,0,VALID,19.6734,VALID,11,VALID,0.279433,
2004-05-24, 03:13:00,VALID,918.805,VALID,0,VALID,100,VALID,0.0169808,VALID,19.6667,VALID,11,VALID,0.216797,
2004-05-24, 03:14:00,VALID,918.776,VALID,0,VALID,100,VALID,0,VALID,19.6737,VALID,16,VALID,0.381177,
2004-05-24, 03:15:00,VALID,918.788,VALID,0,VALID,100,VALID,0.0169808,VALID,19.6662,VALID,26,VALID,0.665334,
2004-05-24, 03:16:00,VALID,918.788,VALID,0,VALID,100,VALID,0.0169808,VALID,19.6727,VALID,353,VALID,0.656631,
2004-05-24, 03:17:00,VALID,918.799,VALID,0,VALID,100,VALID,0,VALID,19.657,VALID,340,VALID,0.258176,
2004-05-24, 03:18:00,VALID,918.8,VALID,0,VALID,100,VALID,0,VALID,19.6471,VALID,342,VALID,0.114099,
2004-05-24, 03:19:00,VALID,918.798,VALID,0,VALID,100,VALID,-0.0169808,VALID,19.6508,VALID,348,VALID,0.284268,
2004-05-24, 03:20:00,VALID,918.801,VALID,0,VALID,100,VALID,-0.0679233,VALID,19.6707,VALID,348,VALID,0.0545139,
2004-05-24, 03:21:01,VALID,918.801,VALID,0,VALID,100,VALID,-0.0679233,VALID,19.6774,VALID,352,VALID,0.350991,
2004-05-24, 03:22:00,VALID,918.826,VALID,0,VALID,100,VALID,-0.0339617,VALID,19.6846,VALID,360,VALID,0.0855655,
2004-05-24, 03:23:00,VALID,918.82,VALID,0,VALID,100,VALID,-0.0679233,VALID,19.6774,VALID,359,VALID,0.203307,
2004-05-24, 03:24:00,VALID,918.84,VALID,0,VALID,100,VALID,0,VALID,19.6938,VALID,4,VALID,0.556141,
2004-05-24, 03:25:00,VALID,918.86,VALID,0,VALID,100,VALID,-0.0339617,VALID,19.6871,VALID,17,VALID,0.884549,
2004-05-24, 03:26:00,VALID,918.876,VALID,0,VALID,100,VALID,-0.0339617,VALID,19.7032,VALID,19,VALID,0.269717,
2004-05-24, 03:27:00,VALID,918.886,VALID,0,VALID,100,VALID,0,VALID,19.7035,VALID,13,VALID,0.196584,
2004-05-24, 03:28:00,VALID,918.898,VALID,0,VALID,100,VALID,-0.0339617,VALID,19.7035,VALID,203,VALID,0.298438,
2004-05-24, 03:29:01,VALID,918.899,VALID,0,VALID,100,VALID,-0.0169808,VALID,19.6836,VALID,222,VALID,0.558966,
2004-05-24, 03:30:00,VALID,918.897,VALID,0,VALID,100,VALID,-0.0339617,VALID,19.6709,VALID,230,VALID,0.446801,
2004-05-24, 03:31:00,VALID,918.919,VALID,0,VALID,100,VALID,-0.0169808,VALID,19.6513,VALID,230,VALID,0.3621,
2004-05-24, 03:32:01,VALID,918.919,VALID,0,VALID,100,VALID,-0.0339617,VALID,19.6682,VALID,230,VALID,0.401972,
2004-05-24, 03:33:01,VALID,918.914,VALID,0,VALID,100,VALID,0,VALID,19.6553,VALID,216,VALID,0.535937,
2004-05-24, 03:34:00,VALID,918.922,VALID,0.2,VALID,100,VALID,-0.0509425,VALID,19.665,VALID,241,VALID,0.343023,
2004-05-24, 03:35:00,VALID,918.948,VALID,0.4,VALID,100,VALID,-0.0339617,VALID,19.6677,VALID,258,VALID,0.211509,
2004-05-24, 03:36:00,VALID,918.973,VALID,0.4,VALID,100,VALID,-0.0509425,VALID,19.6838,VALID,258,VALID,0.0913881,
2004-05-24, 03:37:00,VALID,918.979,VALID,0.6,VALID,100,VALID,-0.0169808,VALID,19.6712,VALID,258,VALID,0.0423828,
2004-05-24, 03:38:00,VALID,918.974,VALID,0.4,VALID,100,VALID,-0.0169808,VALID,19.6742,VALID,217,VALID,0.34484,
2004-05-24, 03:39:00,VALID,918.984,VALID,0.6,VALID,100,VALID,-0.0849042,VALID,19.6647,VALID,176,VALID,0.591882,
2004-05-24, 03:40:01,VALID,918.979,VALID,0.4,VALID,100,VALID,-0.0169808,VALID,19.6093,VALID,202,VALID,1.4295,